Location: *
(43.0409°N, 0.1694°E)
Time: 18:47:43
(UTC+00:00)

FENGYUN 1C DEB - Pass Details

Date: 21 June 2024
Orbit: 854 x 916 km, 98.8° (Epoch: 11 July)

Event Time Altitude Azimuth Distance (km) Brightness Sun altitude
Rises 20:58:18 0° 224° (SW) 3,503 ? -11.3°
Reaches altitude 10° 21:03:01 10° 260° (W) 2,586 ? -11.9°
Maximum altitude 21:04:26 11° 274° (W) 2,529 ? -12.1°
Drops below altitude 10° 21:05:52 10° 288° (WNW) 2,598 ? -12.2°
Sets 21:10:41 0° 324° (NW) 3,557 ? -12.8°
